This is the latest recevied weather packets stored in our database for station/object K5OBH. If no packets are shown the sender has not sent any weather packets the latest 10 day(s).
| Time | Temp. | Humidity | Pressure | Rain* | Wind** | Luminosity | Snow |
|---|---|---|---|---|---|---|---|
| 1777992400 | 21.67° C | 84% | 1002.2 hPa | 0 mm | - | 99 W/m² | - |
| 1777992097 | 21.67° C | 81% | 1002.2 hPa | 0 mm | - | 152 W/m² | - |
| 1777991794 | 21.67° C | 80% | 1002 hPa | 0 mm | - | 138 W/m² | - |
| 1777991491 | 21.67° C | 80% | 1001.7 hPa | 0 mm | - | 131 W/m² | - |
| 1777991188 | 21.11° C | 82% | 1001.9 hPa | 0 mm | - | 129 W/m² | - |
| 1777990886 | 21.11° C | 81% | 1001.8 hPa | 0 mm | - | 115 W/m² | - |
| 1777990584 | 21.67° C | 82% | 1001.7 hPa | 0 mm | - | 105 W/m² | - |
| 1777989977 | 21.67° C | 81% | 1001.8 hPa | 0 mm | - | 92 W/m² | - |
| 1777989674 | 21.11° C | 81% | 1001.7 hPa | 0 mm | - | 92 W/m² | - |
| 1777989369 | 21.67° C | 81% | 1001.7 hPa | 0 mm | - | 88 W/m² | - |
| 1777989066 | 21.11° C | 82% | 1001.4 hPa | 0 mm | - | 94 W/m² | - |
| 1777988762 | 21.11° C | 83% | 1001.6 hPa | 0 mm | - | 95 W/m² | - |
| 1777988460 | 21.11° C | 83% | 1001.4 hPa | 0 mm | - | 90 W/m² | - |
| 1777988156 | 21.11° C | 83% | 1001.4 hPa | 0 mm | - | 89 W/m² | - |
| 1777987852 | 21.11° C | 84% | 1001.5 hPa | 0 mm | - | 87 W/m² | - |
| 1777987549 | 20.56° C | 84% | 1001.6 hPa | 0 mm | - | 73 W/m² | - |
| 1777987247 | 21.11° C | 84% | 1001.5 hPa | 0 mm | - | 77 W/m² | - |
| 1777986943 | 20.56° C | 84% | 1001.8 hPa | 0 mm | - | 88 W/m² | - |
| 1777986641 | 20.56° C | 84% | 1001.7 hPa | 0 mm | - | 101 W/m² | - |
| 1777986339 | 20.56° C | 85% | 1001.7 hPa | 0 mm | - | 108 W/m² | - |
| 1777986037 | 20.56° C | 85% | 1001.3 hPa | 0 mm | - | 93 W/m² | - |
| 1777985733 | 20.56° C | 85% | 1001.5 hPa | 0 mm | - | 78 W/m² | - |
| 1777985430 | 20.56° C | 86% | 1001.4 hPa | 0 mm | - | 85 W/m² | - |
| 1777985127 | 20.56° C | 85% | 1001.3 hPa | 0 mm | - | 56 W/m² | - |
| 1777984823 | 20.56° C | 84% | 1001.2 hPa | 0 mm | - | 54 W/m² | - |
* Rain latest hour (hover to see other rain measurements)
** Current wind speed in m/s (hover to see current wind gust speed)